Date_and_time,latitude,longitude,wind_speed,RelWindDirFrom,WindDirFrom,air_pressure,air_temperature,relative_humidity,Temp,platform_speed_wrt_ground,air_pressure_at_mean_sea_level,platform_orientation
2019-07-21 00:00,50.6304516666667,-96.980765,14.0,16.4,8,988.21,21.4,56,22.94,0.0,1014.04,90.0
2019-07-21 00:10,50.6304516666667,-96.9807683333333,12.4,15.3,5,988.30,21.4,56,22.94,0.0,1014.13,90.0
2019-07-21 00:20,50.630465,-96.980775,10.8,13.4,1,988.42,21.5,55,22.93,0.0,1014.25,90.0
2019-07-21 00:30,50.6304633333333,-96.9807716666667,13.0,16.8,5,988.45,21.4,55,22.92,0.0,1014.29,90.0
2019-07-21 00:40,50.6304633333333,-96.9807683333333,12.2,16.0,356,988.56,21.3,56,22.92,0.0,1014.41,90.0
2019-07-21 00:50,50.6304483333333,-96.980765,8.7,12.6,340,988.76,21.1,55,22.91,0.0,1014.62,90.0
2019-07-21 01:00,50.63045,-96.9807633333333,7.3,10.9,336,988.89,21.3,55,22.89,0.0,1014.74,360.0
2019-07-21 01:10,50.6304483333333,-96.98076,6.9,9.4,330,988.99,21.3,54,22.88,0.0,1014.83,360.0
2019-07-21 01:20,50.63045,-96.98076,9.0,12.6,346,989.01,21.2,55,22.89,0.0,1014.87,360.0
2019-07-21 01:30,50.63045,-96.98076,9.0,13.3,343,989.07,21.1,55,22.90,0.0,1014.93,360.0
2019-07-21 01:40,50.63045,-96.9807616666667,8.8,12.5,334,989.08,20.8,54,22.90,0.0,1014.96,360.0
2019-07-21 01:50,50.6304466666667,-96.9807533333333,8.2,12.4,331,989.17,20.4,54,22.92,0.0,1015.07,360.0
2019-07-21 02:00,50.6304266666667,-96.9807433333333,8.9,14.0,331,989.26,20.0,55,22.94,0.0,1015.17,152.6
2019-07-21 02:10,50.63047,-96.9807716666667,7.8,12.8,332,989.50,19.7,56,22.95,0.0,1015.43,152.6
2019-07-21 02:20,50.6304533333333,-96.980765,8.4,12.3,333,989.61,19.3,57,22.94,0.0,1015.56,152.6
2019-07-21 02:30,50.6304533333333,-96.9807716666667,8.1,11.3,337,989.72,19.1,58,22.93,0.0,1015.69,152.6
2019-07-21 02:40,50.6304533333333,-96.9807683333333,8.2,12.0,335,989.87,19.0,59,22.92,0.0,1015.86,152.6
2019-07-21 02:50,50.6304533333333,-96.9807683333333,9.2,12.8,332,989.96,18.8,58,22.92,0.0,1015.95,152.6
2019-07-21 03:00,50.630455,-96.9807666666667,8.8,12.4,333,990.11,18.7,58,22.91,0.0,1016.11,90.0
2019-07-21 03:10,50.630455,-96.980765,8.7,10.9,336,990.26,18.5,58,22.91,0.0,1016.28,90.0
2019-07-21 03:20,50.6304533333333,-96.9807633333333,8.4,12.6,330,990.41,18.2,59,22.92,0.0,1016.45,90.0
2019-07-21 03:30,50.6304533333333,-96.980765,8.4,12.1,331,990.43,18.0,59,22.92,0.0,1016.49,90.0
2019-07-21 03:40,50.6304483333333,-96.98076,8.3,11.9,333,990.49,17.8,60,22.91,0.0,1016.58,90.0
2019-07-21 03:50,50.6304516666667,-96.9807583333333,8.0,11.5,333,990.66,17.7,61,22.89,0.0,1016.78,90.0
2019-07-21 04:00,50.6304533333333,-96.9807533333333,8.0,12.6,329,990.72,17.4,60,22.89,0.0,1016.87,90.0
2019-07-21 04:10,50.63044,-96.9807533333333,6.9,10.1,324,990.83,17.1,61,22.87,0.0,1017.01,90.0
2019-07-21 04:20,50.6304416666667,-96.9807516666667,7.2,10.4,319,990.88,16.7,62,22.84,0.0,1017.09,90.0
2019-07-21 04:30,50.63045,-96.9807633333333,7.0,10.5,313,990.93,16.4,63,22.79,0.0,1017.16,90.0
2019-07-21 04:40,50.6304533333333,-96.9807616666667,6.9,10.1,310,991.07,16.1,64,22.77,0.0,1017.32,90.0
2019-07-21 04:50,50.6304366666667,-96.9807633333333,6.9,9.8,313,991.12,15.9,66,22.76,0.0,1017.39,90.0
2019-07-21 05:00,50.6304433333333,-96.9807583333333,7.3,11.4,318,991.19,15.8,67,22.77,0.0,1017.48,327.5
2019-07-21 05:10,50.6304433333333,-96.9807583333333,8.2,12.3,318,991.20,15.7,67,22.77,0.0,1017.50,327.5
2019-07-21 05:20,50.6304466666667,-96.9807583333333,7.7,10.2,318,991.33,15.5,68,22.76,0.0,1017.66,327.5
2019-07-21 05:30,50.6304483333333,-96.98076,6.5,10.0,322,991.47,15.4,70,22.73,0.0,1017.82,327.5
2019-07-21 05:40,50.6304583333333,-96.980765,6.7,9.3,323,991.54,15.3,71,22.70,0.0,1017.90,327.5
2019-07-21 05:50,50.6304583333333,-96.980765,7.1,11.0,318,991.55,15.7,69,22.69,0.0,1017.90,327.5
2019-07-21 06:00,50.6304583333333,-96.980765,6.5,16.1,4,991.64,16.0,67,22.69,0.0,1017.99,360.0
2019-07-21 06:10,50.630455,-96.980765,14.8,18.7,48,991.58,19.1,52,22.69,0.0,1017.81,360.0
2019-07-21 06:20,50.6304533333333,-96.980765,14.7,17.8,46,991.65,19.6,50,22.71,0.0,1017.87,360.0
2019-07-21 06:30,50.6304516666667,-96.980765,13.8,17.2,49,991.75,19.6,50,22.72,0.0,1017.98,360.0
2019-07-21 06:40,50.6304516666667,-96.9807666666667,14.1,16.8,52,991.84,19.6,50,22.72,0.0,1018.09,360.0
2019-07-21 06:50,50.63045,-96.9807666666667,13.7,17.4,54,991.93,19.5,51,22.70,0.0,1018.19,360.0
2019-07-21 07:00,50.63045,-96.980765,12.9,16.3,54,992.08,19.4,50,22.69,0.0,1018.36,270.0
2019-07-21 07:10,50.63045,-96.9807666666667,13.1,16.1,66,992.11,19.4,50,22.70,0.0,1018.40,270.0
2019-07-21 07:20,50.6304516666667,-96.9807666666667,10.7,14.0,64,992.12,19.4,49,22.73,0.0,1018.41,270.0
2019-07-21 07:30,50.6304583333333,-96.9807616666667,9.1,12.0,66,992.23,19.4,51,22.72,0.0,1018.53,270.0
2019-07-21 07:40,50.6304516666667,-96.98077,7.9,11.9,66,992.27,19.3,51,22.68,0.0,1018.56,270.0
2019-07-21 07:50,50.63045,-96.9807716666667,2.6,8.8,45,992.39,18.4,56,22.63,0.0,1018.70,270.0
2019-07-21 08:00,50.6304533333333,-96.98077,3.0,5.5,279,992.45,14.6,71,22.61,0.0,1018.80,345.5
2019-07-21 08:10,50.6304533333333,-96.9807683333333,5.0,7.0,297,992.42,13.7,74,22.59,0.0,1018.78,345.5
2019-07-21 08:20,50.6304516666667,-96.9807666666667,3.8,5.4,283,992.57,13.2,78,22.58,0.0,1018.96,345.5
2019-07-21 08:30,50.63046,-96.9807833333333,4.2,6.7,296,992.72,13.0,80,22.57,0.0,1019.13,345.5
2019-07-21 08:40,50.6304533333333,-96.9807766666667,4.2,5.9,296,992.77,12.9,81,22.58,0.0,1019.19,345.5
2019-07-21 08:50,50.6304533333333,-96.9807716666667,3.7,5.3,287,992.85,12.5,84,22.60,0.0,1019.29,345.5
2019-07-21 09:00,50.630455,-96.9807666666667,4.4,5.6,289,992.86,12.3,85,22.63,0.0,1019.32,360.0
2019-07-21 09:10,50.6304533333333,-96.9807633333333,4.4,6.3,280,992.97,12.0,86,22.63,0.0,1019.44,360.0
2019-07-21 09:20,50.630445,-96.9807433333333,4.5,6.3,275,993.07,11.6,88,22.61,0.0,1019.56,360.0
2019-07-21 09:30,50.630445,-96.9807516666667,5.0,6.6,276,993.14,11.4,89,22.56,0.0,1019.65,360.0
2019-07-21 09:40,50.6304483333333,-96.9807516666667,5.3,7.0,279,993.16,11.4,89,22.55,0.0,1019.71,360.0
2019-07-21 09:50,50.63045,-96.980765,4.1,6.7,273,993.22,11.3,91,22.54,0.0,1019.96,360.0
2019-07-21 10:00,50.6304516666667,-96.980765,5.1,8.0,277,993.20,11.2,90,22.51,0.0,1019.98,0.0
2019-07-21 10:10,50.630455,-96.9807666666667,6.0,8.1,281,993.37,10.9,91,22.46,0.0,1020.19,0.0
2019-07-21 10:20,50.63046,-96.9807583333333,6.1,8.2,284,993.45,10.8,90,22.43,0.0,1020.29,0.0
2019-07-21 10:30,50.6304533333333,-96.9807566666667,5.3,8.0,289,993.52,10.9,90,22.43,0.0,1020.36,0.0
2019-07-21 10:40,50.63045,-96.9807566666667,5.7,8.0,291,993.54,11.2,89,22.45,0.0,1020.39,0.0
2019-07-21 10:50,50.6304583333333,-96.9807583333333,5.5,7.8,288,993.64,11.4,88,22.45,0.0,1020.49,0.0
2019-07-21 11:00,50.6304533333333,-96.9807783333333,4.7,6.5,285,993.74,11.4,88,22.43,0.0,1020.60,270.0
2019-07-21 11:10,50.6304516666667,-96.9807766666667,4.2,6.2,287,993.89,11.4,87,22.40,0.0,1020.77,270.0
2019-07-21 11:20,50.6304516666667,-96.980775,4.5,7.3,291,993.98,11.7,85,22.36,0.0,1020.86,270.0
2019-07-21 11:30,50.6304533333333,-96.980775,4.2,6.1,296,994.04,12.0,83,22.32,0.0,1020.91,270.0
2019-07-21 11:40,50.6304533333333,-96.9807716666667,3.7,5.8,295,994.06,12.3,81,22.29,0.0,1020.93,270.0
2019-07-21 11:50,50.6304533333333,-96.9807683333333,4.1,5.9,294,994.14,12.7,78,22.26,0.0,1020.99,270.0
2019-07-21 12:00,50.6304533333333,-96.9807683333333,4.4,6.9,296,994.20,13.1,76,22.26,0.0,1021.05,0.0
2019-07-21 12:10,50.6304516666667,-96.9807666666667,4.5,7.1,295,994.26,13.6,73,22.26,0.0,1021.09,0.0
2019-07-21 12:20,50.6304516666667,-96.9807666666667,4.2,7.2,295,994.41,14.2,70,22.26,0.0,1021.21,0.0
2019-07-21 12:30,50.6304466666667,-96.9807716666667,3.9,6.1,294,994.41,14.8,69,22.24,0.0,1021.18,0.0
2019-07-21 12:40,50.6304516666667,-96.9807633333333,4.5,6.9,295,994.49,15.2,66,22.23,0.0,1021.23,0.0
2019-07-21 12:50,50.6304516666667,-96.980765,4.1,6.7,292,994.60,15.7,64,22.24,0.0,1021.32,0.0
2019-07-21 13:00,50.6304516666667,-96.980765,3.9,5.8,282,994.68,15.7,65,22.24,0.0,1021.39,0.0
2019-07-21 13:10,50.6304516666667,-96.9807666666667,3.8,5.2,286,994.80,16.0,64,22.25,0.0,1021.49,0.0
2019-07-21 13:20,50.6304516666667,-96.9807666666667,4.8,6.3,285,994.88,16.4,62,22.25,0.0,1021.54,0.0
2019-07-21 13:30,50.6304383333333,-96.9807666666667,4.7,6.5,284,994.96,16.9,60,22.23,0.0,1021.57,0.0
2019-07-21 13:40,50.6304433333333,-96.980765,4.5,5.8,274,995.02,17.0,63,22.20,0.0,1021.62,0.0
2019-07-21 13:50,50.6304433333333,-96.980765,3.9,6.0,275,995.09,17.2,64,22.17,0.0,1021.66,0.0
2019-07-21 14:00,50.6304483333333,-96.9807666666667,4.0,6.2,286,995.21,17.6,62,22.17,0.0,1021.75,111.5
2019-07-21 14:10,50.6304483333333,-96.980765,3.6,6.8,292,995.29,18.1,57,22.17,0.0,1021.78,111.5
2019-07-21 14:20,50.6304466666667,-96.9807633333333,4.0,6.2,299,995.34,18.5,55,22.17,0.0,1021.78,111.5
2019-07-21 14:30,50.6304466666667,-96.9807616666667,5.2,7.5,308,995.39,18.6,53,22.17,0.0,1021.81,111.5
2019-07-21 14:40,50.6304466666667,-96.9807616666667,4.8,7.6,284,995.41,18.7,52,22.16,0.0,1021.80,111.5
2019-07-21 14:50,50.6304466666667,-96.9807633333333,5.0,7.8,305,995.39,18.9,50,22.16,0.0,1021.77,111.5
2019-07-21 15:00,50.6304483333333,-96.9807633333333,4.7,8.9,309,995.38,19.1,51,22.17,0.0,1021.74,142.0
2019-07-21 15:10,50.6304483333333,-96.9807633333333,5.4,8.8,315,995.39,19.2,53,22.22,0.0,1021.72,142.0
2019-07-21 15:20,50.6304483333333,-96.9807633333333,5.3,9.6,350,995.50,19.4,55,22.26,0.0,1021.80,142.0
2019-07-21 15:30,50.63045,-96.9807633333333,6.5,10.6,8,995.55,19.6,56,22.29,0.0,1021.85,142.0
2019-07-21 15:40,50.6304833333333,-96.9808083333333,7.3,11.2,9,995.65,19.5,54,22.31,0.0,1021.94,142.0
2019-07-21 15:50,50.6304566666667,-96.9807783333333,6.3,8.1,15,995.76,19.6,55,22.35,0.0,1022.04,142.0
2019-07-21 16:00,50.6304533333333,-96.9807716666667,6.8,8.4,40,995.80,19.6,55,22.38,0.0,1022.05,270.0
2019-07-21 16:10,50.6304516666667,-96.9807683333333,7.0,9.9,37,995.83,19.9,52,22.42,0.0,1022.06,270.0
2019-07-21 16:20,50.6304533333333,-96.9807616666667,6.0,9.3,31,995.91,20.1,50,22.41,0.0,1022.13,270.0
2019-07-21 16:30,50.630455,-96.98077,6.3,12.2,348,995.93,20.4,45,22.36,0.0,1022.13,270.0
2019-07-21 16:40,50.6304416666667,-96.9807516666667,3.6,5.3,359,996.06,20.6,47,22.34,0.0,1022.24,270.0
2019-07-21 16:50,50.6304433333333,-96.9807616666667,3.7,9.5,334,996.10,20.4,46,22.36,0.0,1022.28,270.0
2019-07-21 17:00,50.6304433333333,-96.98077,2.8,6.8,6,996.14,20.4,47,22.36,0.0,1022.31,360.0
2019-07-21 17:10,50.6304433333333,-96.9807683333333,3.9,6.4,6,996.13,20.8,44,22.36,0.0,1022.27,360.0
2019-07-21 17:20,50.630485,-96.9808066666667,2.3,6.0,17,996.13,21.1,44,22.36,0.0,1022.26,360.0
2019-07-21 17:30,50.6304633333333,-96.9807766666667,3.7,8.6,12,996.11,20.8,45,22.35,0.0,1022.26,360.0
2019-07-21 17:40,50.63046,-96.98078,2.2,6.3,339,996.16,21.1,43,22.33,0.0,1022.28,360.0
2019-07-21 17:50,50.6304633333333,-96.980785,4.0,8.3,299,996.15,21.5,39,22.30,0.0,1022.25,360.0
2019-07-21 18:00,50.63046,-96.980765,4.1,8.6,16,996.13,21.6,43,22.38,0.0,1022.22,360.0
2019-07-21 18:10,50.6304583333333,-96.9807633333333,2.8,6.3,350,996.13,21.1,44,22.43,0.0,1022.23,360.0
2019-07-21 18:20,50.630455,-96.9807666666667,3.5,7.0,213,996.03,21.3,40,22.52,0.0,1022.11,360.0
2019-07-21 18:30,50.630455,-96.980765,2.3,8.8,6,996.03,21.6,41,22.54,0.0,1022.08,360.0
2019-07-21 18:40,50.6304466666667,-96.9807566666667,1.6,6.9,239,996.02,21.6,39,22.60,0.0,1022.08,360.0
2019-07-21 18:50,50.6304566666667,-96.98077,2.4,4.2,143,995.94,21.9,40,22.58,0.0,1021.99,360.0
2019-07-21 19:00,50.6304583333333,-96.9807716666667,2.4,8.4,270,995.89,21.7,40,22.57,0.0,1021.93,360.0
2019-07-21 19:10,50.6304583333333,-96.9807716666667,3.5,8.3,280,995.88,22.1,35,22.55,0.0,1021.89,360.0
2019-07-21 19:20,50.6304616666667,-96.9807716666667,3.9,10.0,327,995.84,22.4,35,22.56,0.0,1021.84,360.0
2019-07-21 19:30,50.63046,-96.9807716666667,4.6,10.1,277,995.85,22.1,36,22.67,0.0,1021.86,360.0
2019-07-21 19:40,50.6304516666667,-96.9807683333333,5.6,9.2,287,995.75,22.4,35,22.78,0.0,1021.72,360.0
2019-07-21 19:50,50.630455,-96.9807633333333,3.9,11.8,266,995.66,22.4,34,22.77,0.0,1021.63,360.0
2019-07-21 20:00,50.6304583333333,-96.98077,5.5,10.2,342,995.51,22.7,35,22.76,0.0,1021.48,360.0
2019-07-21 20:10,50.630435,-96.9807666666667,6.1,12.4,296,995.52,22.8,34,22.72,0.0,1021.47,360.0
2019-07-21 20:20,50.63045,-96.980775,7.0,12.7,321,995.44,23.2,33,22.72,0.0,1021.36,360.0
2019-07-21 20:30,50.6304416666667,-96.9807933333333,3.3,9.5,348,995.42,22.9,39,22.83,0.0,1021.35,360.0
2019-07-21 20:40,50.6304466666667,-96.9807616666667,7.2,10.4,50,995.34,22.4,44,22.84,0.0,1021.28,360.0
2019-07-21 20:50,50.6304516666667,-96.9807666666667,5.4,9.5,64,995.29,22.8,42,22.86,0.0,1021.23,360.0
2019-07-21 21:00,50.630455,-96.9807716666667,4.3,10.9,9,995.25,22.6,41,22.82,0.0,1021.18,192.6
2019-07-21 21:10,50.6304433333333,-96.98076,2.0,5.8,91,995.23,23.4,38,22.76,0.0,1021.11,192.6
2019-07-21 21:20,50.6304483333333,-96.9807683333333,3.2,7.2,316,995.16,23.7,36,22.78,0.0,1021.04,192.6
2019-07-21 21:30,50.630445,-96.9808016666667,3.9,9.4,295,995.14,23.8,34,22.71,0.0,1021.00,192.6
2019-07-21 21:40,50.630445,-96.9807733333333,4.2,8.6,328,995.02,23.9,35,22.64,0.0,1020.88,192.6
2019-07-21 21:50,50.6304533333333,-96.9807566666667,4.6,7.1,330,995.03,23.8,33,22.78,0.0,1020.87,192.6
2019-07-21 22:00,50.630455,-96.980755,6.3,11.3,320,994.95,23.7,34,22.91,0.0,1020.79,125.3
2019-07-21 22:10,50.6304716666667,-96.9807533333333,5.8,9.7,313,994.89,23.6,33,23.05,0.0,1020.72,125.3
2019-07-21 22:20,50.6304666666667,-96.9807633333333,7.9,13.4,289,994.79,23.9,33,22.96,0.0,1020.61,125.3
2019-07-21 22:30,50.6304633333333,-96.980765,6.2,10.7,292,994.78,23.9,33,22.83,0.0,1020.62,125.3
2019-07-21 22:40,50.6304616666667,-96.9807666666667,8.9,14.5,305,994.61,23.9,34,22.84,0.0,1020.43,125.3
2019-07-21 22:50,50.6304633333333,-96.9807683333333,8.9,13.5,284,994.58,24.0,32,23.12,0.0,1020.40,125.3
2019-07-21 23:00,50.6304633333333,-96.9807666666667,7.4,12.8,287,994.56,23.9,33,23.31,0.0,1020.35,360.0
2019-07-21 23:10,50.6304766666667,-96.9807616666667,8.3,14.9,292,994.59,24.0,33,23.36,0.0,1020.37,360.0
2019-07-21 23:20,50.63045,-96.9807683333333,5.5,10.4,290,994.72,23.4,35,23.38,0.0,1020.52,360.0
2019-07-21 23:30,50.6304533333333,-96.9807683333333,5.1,8.4,289,994.65,23.2,37,23.42,0.0,1020.45,360.0
